This demonstration page uses our WeatherBlox Daily Observations layout. Learn more.

41.55636, -103.73856

Hourly Observations for January 24, 2020

Temp ( °F °C ) Dew Point ( °F °C ) Humidity (%) Winds ( mph kmh ) Pressure ( in mb ) Visibility ( mi km ) Precip ( " mm )
12:58 am 00:58 Clear 29 -1.9 14 -10 54 54 WSW 6 9 30.21 1023 10 16.0934 0 0
1:58 am 01:58 Clear 25 -3.9 14 -10 63 63 W 8 13 30.24 1024 10 16.0934 0 0
2:58 am 02:58 Partly Cloudy 24 -4.3 14 -10.2 64 64 WSW 6 9 30.32 1027 10 16.0934 0 0
3:58 am 03:58 Clear 24 -4.3 15 -9.7 66 66 SW 5 7 30.22 1023 10 16.0934 0 0
4:58 am 04:58 Mostly Cloudy 27 -2.8 15 -9.2 62 62 SW 3 6 30.19 1022 10 16.0934 0 0
5:58 am 05:58 Partly Cloudy 28 -2.5 17 -8.4 64 64 W 5 7 30.16 1021 10 16.0934 0 0
6:58 am 06:58 Mostly Cloudy 27 -3 18 -7.7 70 70 WSW 3 6 30.15 1021 10 16.0934 0 0
7:58 am 07:58 Mostly Cloudy 29 -1.9 19 -7.5 66 66 WSW 5 7 30.13 1020 10 16.0934 0 0
8:58 am 08:58 Mostly Cloudy 29 -1.6 18 -7.9 63 63 Calm 30.12 1020 10 16.0934 0 0
9:58 am 09:58 Mostly Cloudy 26 -3.3 19 -7.1 75 75 WSW 6 9 30.12 1020 10 16.0934 0 0
10:58 am 10:58 Cloudy with Light Snow Showers 29 -1.8 21 -6.3 72 72 SW 5 7 30.11 1020 10 16.0934 0 0
11:58 am 11:58 Cloudy with Light Showers 30 -1.3 21 -6.1 70 70 W 3 6 30.11 1020 10 16.0934 0 0
12:58 pm 12:58 Mostly Cloudy 31 -0.6 21 -5.9 68 68 SW 6 9 30.12 1020 10 16.0934 0 0
1:58 pm 13:58 Mostly Cloudy 32 -0.2 20 -6.5 63 63 W 3 6 30.12 1020 10 16.0934 0 0
2:58 pm 14:58 Mostly Cloudy 32 0.1 22 -5.4 67 67 Calm 30.12 1020 10 16.0934 0 0
3:58 pm 15:58 Cloudy 36 2 25 -4 65 65 WSW 3 6 30.11 1020 10 16.0934 0 0
4:58 pm 16:58 Mostly Cloudy 40 4.5 26 -3.4 57 57 WNW 14 22 30.08 1019 10 16.0934 0 0
5:56 pm 17:56 Mostly Cloudy 42 5.6 26 -3.5 52 52 NW 10 17 30.06 1018 10 16.0934 0 0
6:58 pm 18:58 Partly Cloudy 47 8.5 24 -4.4 40 40 NNW 15 24 30.01 1016 10 16.0934 0 0
7:58 pm 19:58 Partly Cloudy 48 8.9 24 -4.7 38 38 NNW 12 19 29.97 1015 10 16.0934 0 0
8:58 pm 20:58 Mostly Sunny 50 10.2 23 -5 34 34 NNW 14 22 29.94 1014 10 16.0934 0 0
9:58 pm 21:58 Sunny 50 9.8 23 -5 35 35 NNW 8 13 29.96 1015 10 16.0934 0 0
10:58 pm 22:58 Sunny 48 8.9 23 -4.8 38 38 Calm 29.95 1014 10 16.0934 0 0
11:58 pm 23:58 Partly Cloudy 45 7.3 23 -5 42 42 WNW 12 19 29.96 1015 10 16.0934 0 0

Powered by AerisWeather